Preview of NWS' New Version of Forecast
This preview is not operational and should not be used for support decisions.

Regional Weather Roundup (RWR)

Issued by National Weather Service (NWS)

                            
000
ASUS43 KLSX 190157
RWRMO 

WEATHER SUMMARY FOR MISSOURI
NATIONAL WEATHER SERVICE SPRINGFIELD MO
900 PM CDT THU APR 18 2019

NOTE: "FAIR" INDICATES FEW OR NO CLOUDS BELOW 12,000 FEET WITH NO
       SIGNIFICANT WEATHER AND/OR OBSTRUCTIONS TO VISIBILITY.
       CURRENT SKY AND/OR WEATHER CONDITIONS ARE NOT AVAILABLE FOR
       CHILLICOTHE AND FARMINGTON.

MOZ001>031-035>038-043-044-053-054-190300-
...NORTHERN AND WESTERN MISSOURI...
  
CITY           SKY/WX    TMP DP  RH WIND       PRES   REMARKS
KANSAS CTY INT PTCLDY    50  39  66 N10       29.88R                  
LEE'S SUMMIT   PTCLDY    53  39  59 N12       29.87R                  
ST JOSEPH      MOCLDY    53  40  61 N14       29.90R                  
CHILLICOTHE      N/A     54  39  57 N10G20    29.89R                  
     
$$
MOZ066>068-077>081-088>096-101>105-190300-
...SOUTHWEST MISSOURI...
  
CITY           SKY/WX    TMP DP  RH WIND       PRES   REMARKS
SPRINGFIELD    CLOUDY    53  41  63 N13       29.80S                  
JOPLIN         CLEAR     51  40  65 N6        29.84R                  
BRANSON        MOCLDY    48  45  87 NW7       29.80S                  
               
$$
MOZ032>034-039>042-045>050-055>058-069>072-190300-
...CENTRAL MISSOURI...  
  
CITY           SKY/WX    TMP DP  RH WIND       PRES   REMARKS
COLUMBIA       NOT AVBL                                               
JEFFERSON CITY CLOUDY    53  43  68 CALM      29.81R                  
ROLLA          MOCLDY    48  42  80 N5        29.79S                  
SEDALIA        MOCLDY    49  42  77 N9        29.84R                  
WARRENSBURG    PTCLDY    52  41  66 N3        29.85S                  
               
$$
MOZ051-052-059>065-190300-
...EAST CENTRAL MISSOURI...
  
CITY           SKY/WX    TMP DP  RH WIND       PRES   REMARKS
ST LOUIS INTL  NOT AVBL                                               
                   
$$
MOZ072>076-082>087-097>100-106>115-190300-
...SOUTH CENTRAL AND SOUTHEAST MISSOURI...
  
CITY           SKY/WX    TMP DP  RH WIND       PRES   REMARKS
CAPE GIRARDEAU LGT RAIN  48  45  89 N16G25    29.70F FOG              
POPLAR BLUFF   LGT RAIN  48  47  96 N15G24    29.72R FOG              
WEST PLAINS    CLOUDY    47  44  90 N7        29.78S                  
                                       
$$